Seattle, WA

12:46 AM PST on February 21, 2017 (GMT -0800)
Boeing Field-King County International

Weather History for KBFI - October, 2013

Change the Weather History Date:

Friday, October 18, 2013

  Actual Average Record
Temperature  
Mean Temperature 50 °F -  
Max Temperature 55 °F 57 °F 70 °F (1974)
Min Temperature 46 °F 44 °F 32 °F (1949)
Degree Days  
Heating Degree Days 14    
Moisture  
Dew Point 45 °F    
Average Humidity 86    
Maximum Humidity 93    
Minimum Humidity 74    
Precipitation  
Precipitation 0.00 in - - ()
Sea Level Pressure  
Sea Level Pressure 30.22 in    
Wind  
Wind Speed 1 mph (NNW)    
Max Wind Speed 6 mph    
Max Gust Speed -    
Visibility 5 miles    
Events Fog    
Averages and records for this station are not official NWS values.
T = Trace of Precipitation, MM = Missing Value Source: NWS Daily Summary

Daily Weather History Graph

Daily Weather History Graph

Search for Another Location

Airport or City:

Trip Planner

Search our weather history database for the weather conditions in past years. The results will help you decide how hot, cold, wet, or windy it might be!

Date:

Astronomy

Oct. 18, 2013 Rise Set
Actual Time 7:32 AM PDT 6:14 PM PDT
Civil Twilight 7:01 AM PDT 6:46 PM PDT
Nautical Twilight 6:25 AM PDT 7:21 PM PDT
Astronomical Twilight 5:50 AM PDT 7:57 PM PDT
Moon 6:06 PM PDT (10/18) 7:14 AM PDT (10/18)
Length of Visible Light 11h 44m
Length of Day
10h 42m
Full, 100% of the Moon is Illuminated
Oct 18
Full
Oct 18
Full
Oct 26
Last Quarter
Nov 3
New
Nov 9
First Quarter

Hourly Weather History & Observations

Time (PDT) Temp. Dew Point Humidity Pressure Visibility Wind Dir Wind Speed Gust Speed Precip Events Conditions
12:14 AM 46.4 °F 42.8 °F 87% 30.25 in 6.0 mi Calm Calm - N/A   Scattered Clouds
12:53 AM 46.9 °F 43.0 °F 86% 30.25 in 5.0 mi Calm Calm - N/A   Scattered Clouds
1:25 AM 48.2 °F 44.6 °F 87% 30.25 in 3.0 mi Calm Calm - N/A   Overcast
1:53 AM 46.9 °F 43.0 °F 86% 30.25 in 3.0 mi Calm Calm - N/A   Overcast
2:51 AM 48.2 °F 44.6 °F 87% 30.25 in 0.8 mi Calm Calm - N/A   Overcast
2:53 AM 48.9 °F 46.0 °F 90% 30.25 in 0.8 mi Calm Calm - N/A   Overcast
3:53 AM 48.9 °F 46.9 °F 93% 30.25 in 0.5 mi Calm Calm - N/A Fog Fog
4:53 AM 48.9 °F 46.0 °F 90% 30.24 in 0.5 mi North 3.5 mph - N/A Fog Fog
5:53 AM 48.0 °F 46.0 °F 93% 30.25 in 0.5 mi Calm Calm - N/A Fog Fog
5:57 AM 48.2 °F 46.4 °F 93% 30.24 in 0.5 mi Calm Calm - N/A Fog Fog
6:53 AM 46.9 °F 45.0 °F 93% 30.24 in 0.2 mi North 3.5 mph - N/A Fog Fog
7:53 AM 46.9 °F 45.0 °F 93% 30.24 in 0.2 mi Calm Calm - N/A Fog Fog
8:53 AM 46.9 °F 45.0 °F 93% 30.25 in 0.2 mi Calm Calm - N/A Fog Fog
9:53 AM 46.9 °F 45.0 °F 93% 30.25 in 1.0 mi NW 3.5 mph - N/A   Overcast
10:32 AM 48.2 °F 44.6 °F 87% 30.25 in 1.0 mi Calm Calm - N/A   Overcast
10:53 AM 48.9 °F 45.0 °F 86% 30.25 in 1.0 mi NNW 4.6 mph - N/A   Overcast
11:53 AM 50.0 °F 46.0 °F 86% 30.24 in 4.0 mi Calm Calm - N/A   Overcast
12:53 PM 52.0 °F 46.0 °F 80% 30.24 in 6.0 mi Variable 3.5 mph - N/A   Haze
1:22 PM 51.8 °F 46.4 °F 82% 30.23 in 10.0 mi Calm Calm - N/A   Haze
1:53 PM 52.0 °F 46.0 °F 80% 30.22 in 10.0 mi Calm Calm - N/A   Scattered Clouds
2:53 PM 54.0 °F 46.9 °F 77% 30.20 in 10.0 mi NNW 5.8 mph - N/A   Scattered Clouds
3:53 PM 54.0 °F 46.9 °F 77% 30.19 in 10.0 mi NW 3.5 mph - N/A   Clear
4:53 PM 55.0 °F 46.9 °F 74% 30.18 in 10.0 mi NNW 3.5 mph - N/A   Clear
5:53 PM 54.0 °F 46.0 °F 75% 30.17 in 10.0 mi NW 4.6 mph - N/A   Clear
6:53 PM 53.1 °F 46.0 °F 77% 30.16 in 10.0 mi Calm Calm - N/A   Clear
7:53 PM 51.1 °F 46.0 °F 83% 30.16 in 10.0 mi Calm Calm - N/A   Clear
8:53 PM 50.0 °F 46.0 °F 86% 30.17 in 10.0 mi Calm Calm - N/A   Clear
9:53 PM 48.0 °F 44.1 °F 86% 30.17 in 8.0 mi Calm Calm - N/A   Clear
10:53 PM 46.9 °F 43.0 °F 86% 30.17 in 7.0 mi Calm Calm - N/A   Clear
11:53 PM 46.9 °F 42.1 °F 83% 30.17 in 6.0 mi Calm Calm - N/A   Haze